Amritsar, India

3:00 PM IST on May 28, 2017 (GMT +0530)
Amritsar

Weather History for VIAR - November, 2013

Change the Weather History Date:

Saturday, November 30, 2013

  Actual Average Record
Temperature  
Mean Temperature 62 °F -  
Max Temperature 78 °F 70 °F 80 °F (2014)
Min Temperature 46 °F 44 °F 35 °F (2000)
Degree Days  
Heating Degree Days 3    
Growing Degree Days 12 (Base 50)    
Moisture  
Dew Point 49 °F    
Average Humidity 74    
Maximum Humidity 100    
Minimum Humidity 21    
Precipitation  
Precipitation 0.00 in - - ()
Sea Level Pressure  
Sea Level Pressure 30.00 in    
Wind  
Wind Speed 0 mph ()    
Max Wind Speed 5 mph    
Max Gust Speed -    
Visibility 1.6 miles    
Events      
Averages and records for this station are not official NWS values.
T = Trace of Precipitation, MM = Missing Value Source: Averaged Metar Reports

Daily Weather History Graph

Daily Weather History Graph

Search for Another Location

Airport or City:

Trip Planner

Search our weather history database for the weather conditions in past years. The results will help you decide how hot, cold, wet, or windy it might be!

Date:

Astronomy

Nov. 30, 2013 Rise Set
Actual Time 7:11 AM IST 5:26 PM IST
Civil Twilight 6:44 AM IST 5:53 PM IST
Nautical Twilight 6:14 AM IST 6:23 PM IST
Astronomical Twilight 5:45 AM IST 6:52 PM IST
Moon 4:02 AM IST (11/30) 3:23 PM IST (11/30)
Length of Visible Light 11h 08m
Length of Day
10h 15m
Waning Crescent, 10% of the Moon is Illuminated
Nov 30
Waning Crescent
Dec 3
New
Dec 9
First Quarter
Dec 17
Full
Dec 25
Last Quarter

Hourly Weather History & Observations

Time (IST) Temp. Dew Point Humidity Pressure Visibility Wind Dir Wind Speed Gust Speed Precip Events Conditions
12:00 AM 53.6 °F 53.6 °F 100% 30.04 in 1.9 mi Calm Calm - N/A   Mist
12:30 AM 51.8 °F 51.8 °F 100% 30.04 in 1.9 mi Calm Calm - N/A   Mist
1:00 AM 53.6 °F 51.8 °F 94% 30.01 in 1.6 mi Calm Calm - N/A   Mist
1:30 AM 53.6 °F 53.6 °F 100% 30.01 in 1.6 mi Calm Calm - N/A   Mist
2:00 AM 51.8 °F 51.8 °F 100% 30.01 in 1.6 mi Calm Calm - N/A   Mist
2:30 AM 51 °F 51 °F 99% 30.01 in 1 mi Calm Calm - -   Mist
2:30 AM 50.0 °F 50.0 °F 100% 30.01 in 1.6 mi Calm Calm - N/A   Mist
3:00 AM 50.0 °F 50.0 °F 100% 29.98 in 1.6 mi Calm Calm - N/A   Mist
3:30 AM 50.0 °F 50.0 °F 100% 29.98 in 1.6 mi Calm Calm - N/A   Mist
4:00 AM 50.0 °F 50.0 °F 100% 29.98 in 1.6 mi Calm Calm - N/A   Mist
4:30 AM 48.2 °F 48.2 °F 100% 29.98 in 1.6 mi Calm Calm - N/A   Mist
5:00 AM 48.2 °F 48.2 °F 100% 29.98 in 1.6 mi Calm Calm - N/A   Mist
5:30 AM 48 °F 48 °F 99% 30.00 in 1 mi Calm Calm - -   Mist
5:30 AM 46.4 °F 46.4 °F 100% 29.98 in 1.6 mi Calm Calm - N/A   Mist
6:00 AM 48.2 °F 48.2 °F 100% 29.98 in 1.6 mi Calm Calm - N/A   Mist
6:30 AM 46.4 °F 46.4 °F 100% 29.98 in 0.9 mi Calm Calm - N/A   Mist
7:00 AM 46.4 °F 46.4 °F 100% 30.01 in 0.9 mi Calm Calm - N/A   Mist
7:30 AM 46.4 °F 46.4 °F 100% 30.01 in 0.6 mi Calm Calm - N/A   Mist
8:00 AM 48.2 °F 48.2 °F 100% 30.04 in 0.6 mi Calm Calm - N/A   Mist
8:30 AM 52 °F 52 °F 100% 30.05 in 1 mi Calm Calm - -   Mist
8:30 AM 51.8 °F 51.8 °F 100% 30.04 in 0.6 mi Calm Calm - N/A   Mist
9:00 AM 55.4 °F 55.4 °F 100% 30.04 in 0.6 mi Calm Calm - N/A   Mist
10:00 AM 62.6 °F 53.6 °F 72% 30.06 in 1.1 mi Calm Calm - N/A   Mist
10:30 AM 68.0 °F 51.8 °F 56% 30.06 in 1.6 mi Calm Calm - N/A   Haze
11:00 AM 71.6 °F 50.0 °F 46% 30.06 in 1.6 mi Calm Calm - N/A   Haze
11:30 AM 72 °F 46 °F 29% 30.03 in 1 mi Calm Calm - -   Haze
11:30 AM 71.6 °F 46.4 °F 41% 30.06 in 1.6 mi Calm Calm - N/A   Haze
12:00 PM 73.4 °F 44.6 °F 36% 30.04 in 2.2 mi Calm Calm - N/A   Haze
12:30 PM 73.4 °F 44.6 °F 36% 30.04 in 2.5 mi WNW 4.6 mph - N/A   Haze
1:00 PM 75.2 °F 44.6 °F 34% 30.01 in 2.5 mi Variable 2.3 mph - N/A   Haze
1:30 PM 77.0 °F 44.6 °F 32% 30.01 in 2.5 mi Variable 3.5 mph - N/A   Haze
2:00 PM 77.0 °F 42.8 °F 29% 29.98 in 2.5 mi NW 4.6 mph - N/A   Haze
2:30 PM 77 °F 44 °F 21% 29.95 in 1 mi 3.5 mph - -   Haze
2:30 PM 77.0 °F 44.6 °F 32% 29.98 in 2.5 mi Variable 3.5 mph - N/A   Haze
3:00 PM 77.0 °F 46.4 °F 34% 29.95 in 2.5 mi Variable 2.3 mph - N/A   Haze
3:30 PM 77.0 °F 44.6 °F 32% 29.95 in 2.5 mi Variable 1.2 mph - N/A   Haze
4:00 PM 77.0 °F 44.6 °F 32% 29.95 in 2.5 mi Variable 2.3 mph - N/A   Haze
4:30 PM 75.2 °F 46.4 °F 36% 29.95 in 2.5 mi Variable 1.2 mph - N/A   Haze
5:30 PM 70 °F 46 °F 32% 29.94 in 1 mi Calm Calm - -   Haze
5:30 PM 69.8 °F 46.4 °F 43% 29.95 in 2.5 mi Calm Calm - N/A   Haze
6:00 PM 66.2 °F 50.0 °F 56% 29.98 in 2.2 mi Calm Calm - N/A   Haze
6:30 PM 60.8 °F 51.8 °F 72% 29.98 in 2.2 mi Calm Calm - N/A   Haze
7:30 PM 60.8 °F 50.0 °F 68% 29.98 in 1.6 mi Calm Calm - N/A   Haze
8:00 PM 59.0 °F 51.8 °F 77% 29.98 in 1.2 mi Calm Calm - N/A   Haze
8:30 PM 59.0 °F 51.8 °F 77% 30.01 in 1.2 mi Calm Calm - N/A   Mist
9:00 PM 55.4 °F 51.8 °F 88% 30.01 in 1.2 mi Calm Calm - N/A   Mist
9:30 PM 55.4 °F 53.6 °F 94% 30.01 in 1.2 mi Calm Calm - N/A   Mist
10:00 PM 55.4 °F 51.8 °F 88% 30.01 in 1.2 mi Calm Calm - N/A   Mist
10:30 PM 55.4 °F 51.8 °F 88% 30.01 in 1.2 mi Calm Calm - N/A   Mist
11:00 PM 55.4 °F 50.0 °F 82% 30.01 in 1.2 mi Calm Calm - N/A   Mist
11:30 PM 54 °F 53 °F 96% 30.00 in 1 mi Calm Calm - -   Mist